Location: Peach Mountain Observatory
(42.3967°N, 83.9367°W)
Time: 06:37:56
(UTC-05:00)

Vanguard 1 Rocket - Pass Details

Date: 31 January 2020
Orbit: 650 x 4226 km, 34.3° (Epoch: 19 February)

Event Time Altitude Azimuth Distance (km) Brightness Sun altitude
Rises 07:09:13 0° 198° (SSW) 3,056 10.1 -8.1°
Reaches altitude 10° 07:12:27 10° 171° (S) 2,362 9.9 -7.5°
Maximum altitude 07:15:14 14° 139° (SE) 2,339 10.5 -7.0°
Drops below altitude 10° 07:18:37 10° 109° (ESE) 3,012 11.9 -6.4°
Sets 07:23:51 0° 88° (E) 4,653 12.6 -5.5°
